[Iaude] MPEC M95: 2020 MF2 [a=2.75,e=0.55,i=13.4,H=19.8]

mpec at marsden.cfa.harvard.edu mpec at marsden.cfa.harvard.edu
Tue Jun 23 23:22:39 EDT 2020


M.P.E.C. 2020-M95                                 Issued 2020 June 24, 03:21 UT

     The Minor Planet Electronic Circulars contain information on unusual
         minor planets and routine data on comets.  They are published
    on behalf of Division F of the International Astronomical Union by the
          Minor Planet Center, Smithsonian Astrophysical Observatory,
                          Cambridge, MA 02138, U.S.A.

             Prepared using the Tamkin Foundation Computer Network

                              MPC at CFA.HARVARD.EDU
            URL https://www.minorplanetcenter.net/    ISSN 1523-6714

                                    2020 MF2                                    


Observations:
     K20M02F  C2020 05 26.56036721 05 34.195-07 37 35.79         21.16GVEM095F52
     K20M02F  C2020 05 26.57021121 05 35.894-07 37 07.45         20.59GVEM095F52
     K20M02F  C2020 05 26.58001721 05 37.576-07 36 39.58         20.23GVEM095F52
     K20M02F  C2020 05 26.58985021 05 39.283-07 36 11.57         20.73GVEM095F52
     K20M02F* C2020 06 22.54468122 10 47.659+13 16 00.18         20.93wUEM095F51
     K20M02F  C2020 06 22.55737222 10 48.937+13 16 31.69         20.88wUEM095F51
     K20M02F  C2020 06 22.57005822 10 50.209+13 17 02.95         20.73wUEM095F51
     K20M02F KC2020 06 23.01994022 11 38.74 +13 35 21.2          20.6 GVEM095L01
     K20M02F KC2020 06 23.02311022 11 39.07 +13 35 29.2          20.7 GVEM095L01
     K20M02F KC2020 06 23.02939422 11 39.68 +13 35 44.5          20.6 GVEM095L01
     K20M02F KC2020 06 23.03567522 11 40.40 +13 35 57.7          19.8 GVEM095J95
     K20M02F KC2020 06 23.03572022 11 40.32 +13 35 59.7          20.8 GVEM095L01
     K20M02F KC2020 06 23.03885022 11 40.65 +13 36 07.4          20.8 GVEM095L01
     K20M02F KC2020 06 23.04725922 11 41.62 +13 36 26.2          20.2 GVEM095J95
     K20M02F  C2020 06 23.05215 22 11 42.15 +13 36 40.7          19.8 RVEM095511
     K20M02F  C2020 06 23.05358 22 11 42.25 +13 36 43.7          19.7 RVEM095511
     K20M02F KC2020 06 23.05474422 11 42.37 +13 36 44.4          20.3 GVEM095J95
     K20M02F  C2020 06 23.05499 22 11 42.38 +13 36 46.7          19.5 RVEM095511
     K20M02F  C2020 06 23.05641 22 11 42.56 +13 36 50.7          20.0 RVEM095511
     K20M02F  C2020 06 23.05784 22 11 42.72 +13 36 54.4          19.8 RVEM095511
     K20M02F  C2020 06 23.05926 22 11 42.87 +13 36 58.4          19.8 RVEM095511
     K20M02F KC2020 06 23.37321 22 12 15.95 +13 49 46.8          21.3 GVEM095H36
     K20M02F KC2020 06 23.38410 22 12 17.04 +13 50 13.2          21.5 GVEM095H36
     K20M02F ^C2020 06 23.60065322 12 39.466+13 59 06.52         19.95GVEM095568
     K20M02F ^C2020 06 23.60159822 12 39.558+13 59 08.82         19.97GVEM095568
     K20M02F ^C2020 06 23.60254622 12 39.650+13 59 11.15         19.95GVEM095568
     K20M02F ^C2020 06 23.60365422 12 39.757+13 59 13.81         19.96GVEM095568
     K20M02F KC2020 06 24.06545 22 13 28.39 +14 17 42.6          20.1 GVEM095958
     K20M02F KC2020 06 24.06837822 13 28.56 +14 17 49.7          20.0 GVEM095K38
     K20M02F KC2020 06 24.07553 22 13 29.42 +14 18 07.4          19.7 GVEM095958
     K20M02F KC2020 06 24.08558 22 13 30.38 +14 18 31.9          20.3 GVEM095958
     K20M02F KC2020 06 24.09132222 13 30.78 +14 18 45.4          19.3 GVEM095K38

Observer details:
511 Haute Provence.  Observers M. Birlan, F. Colas.  Measurer M. Birlan.
    1.20-m f/6 reflector + CCD.
568 Mauna Kea.  Observers R. Wainscoat, L. Wells, S. Prunet.  Measurers R.
    Weryk, R. Wainscoat.  3.6-m Canada-France-Hawaii Telescope + CCD.
958 Observatoire de Dax.  Observer P. Dupouy.  0.51-m f/6 reflector + CCD.
F51 Pan-STARRS 1, Haleakala.  Observers J. Bulger, T. Lowe, A. Schultz, M.
    Willman.  Measurers K. Chambers, S. Chastel, T. de Boer, L. Denneau, J.
    Fairlamb, H. Flewelling, M. Huber, C.-C. Lin, E. Magnier, Y. Ramanjooloo,
    R. Wainscoat, R. Weryk.  1.8-m Ritchey-Chretien + CCD.
F52 Pan-STARRS 2, Haleakala.  Observers J. Bulger, K. Chambers, T. Dukes, T.
    Lowe, A. Schultz, M. Willman.  Measurers S. Chastel, M. Huber, Y.
    Ramanjooloo, R. Wainscoat, R. Weryk.  1.8-m Ritchey-Chretien + CCD.
H36 Sandlot Observatory, Scranton.  Observer G. Hug.  0.56-m reflector + CCD.
J95 Great Shefford.  Observer P. Birtwhistle.  0.41-m f/6.3 Schmidt-Cassegrain
    + CCD.
K38 M57 Observatory, Saltrio.  Observer G. Baj.  0.3-m f/5.5 Ritchey-Chretien
    + CCD.
L01 Visnjan Observatory, Tican.  Observers K. Korlevic, D. Pujagic, V. Dobos.
    Measurer K. Korlevic.  1.0-m f/2.9 reflector + CCD.

Orbital elements:
2020 MF2                                                 Earth MOID = 0.2472 AU
Epoch 2020 May 31.0 TT = JDT 2459000.5                  Pan
M 357.72722              (2000.0)            P               Q
n   0.21640100     Peri.   27.56104     +0.16437664     +0.96110748
a   2.7476614      Node   252.60395     -0.94240455     +0.08657631
e   0.5473896      Incl.   13.44825     -0.29129706     +0.26225362
P   4.55           H   19.8           G   0.15           U   7
Residuals in seconds of arc
200526 F52  0.1+  0.0     200623 L01  0.1-  0.2-    200623 H36  0.2+  0.3-
200526 F52  0.0   0.2+    200623 L01  0.0   0.2-    200623 568  0.1+  0.1+
200526 F52  0.1-  0.0     200623 J95  0.1+  0.0     200623 568  0.1+  0.1+
200526 F52  0.0   0.2-    200623 511  0.5+  0.2+    200623 568  0.1+  0.1+
200622 F51  0.0   0.1+    200623 511  0.2-  0.3-    200623 568  0.1+  0.1+
200622 F51  0.0   0.2+    200623 J95  0.2-  0.3-    200624 958  0.2-  0.2-
200622 F51  0.0   0.0     200623 511  0.4-  0.8-    200624 K38  0.3+  0.1+
200623 L01  0.3+  0.1+    200623 511  0.1+  0.3-    200624 958  0.3+  0.1+
200623 L01  0.4+  0.3+    200623 511  0.4+  0.1-    200624 958  0.1-  0.3+
200623 L01  0.1-  0.1+    200623 511  0.4+  0.4+    200624 K38  0.2-  0.3+
200623 J95  0.3-  0.0     200623 H36  0.1+  0.0

Ephemeris:
2020 MF2                 a,e,i = 2.75, 0.55, 13                  q = 1.2436
Date    TT    R. A. (2000) Decl.     Delta      r    Elong.  Phase     V
2020 05 25    21 00 50.6 -08 51 44   0.4881  1.2578   108.7    49.7    20.6
...
2020 06 09    21 42 04.3 +03 10 23   0.4636  1.2437   108.7    50.6    20.5
...
2020 06 17    22 00 04.5 +09 18 48   0.4614  1.2458   109.1    50.4    20.5
...
2020 06 23    22 11 35.9 +13 34 41   0.4633  1.2518   109.8    49.8    20.5
2020 06 24    22 13 21.0 +14 15 13   0.4639  1.2531   110.0    49.7    20.5
2020 06 25    22 15 03.1 +14 55 06   0.4646  1.2545   110.1    49.5    20.5
...
2020 07 01    22 24 13.8 +18 39 59   0.4696  1.2653   111.3    48.5    20.5
...
2020 07 09    22 33 40.9 +22 58 49   0.4790  1.2850   113.5    46.5    20.5
...
2020 07 24    22 42 32.6 +28 47 21   0.5020  1.3369   119.6    41.4    20.6

M. P. C. Staff               (C) Copyright 2020 MPC           M.P.E.C. 2020-M95




More information about the Iaude mailing list